This is the latest recevied weather packets stored in our database for station/object CA4LJZ-10. If no packets are shown the sender has not sent any weather packets the latest 10 day(s).
| Time | Temp. | Humidity | Pressure | Rain* | Wind** | Luminosity | Snow |
|---|---|---|---|---|---|---|---|
| 1777553607 | 21.11° C | 45% | 949.7 hPa | - | - | - | - |
| 1777552706 | 18.89° C | 48% | 949.5 hPa | - | - | - | - |
| 1777551805 | 17.78° C | 48% | 949.5 hPa | - | - | - | - |
| 1777550904 | 17.78° C | 48% | 949.2 hPa | - | - | - | - |
| 1777550004 | 17.22° C | 50% | 949 hPa | - | - | - | - |
| 1777549102 | 18.33° C | 50% | 948.9 hPa | - | - | - | - |
| 1777548226 | 17.22° C | 49% | 948.9 hPa | - | - | - | - |
| 1777547325 | 17.22° C | 48% | 949 hPa | - | - | - | - |
| 1777546424 | 17.22° C | 48% | 949 hPa | - | - | - | - |
| 1777545522 | 17.22° C | 48% | 949 hPa | - | - | - | - |
| 1777544622 | 17.22° C | 48% | 948.9 hPa | - | - | - | - |
| 1777543721 | 17.78° C | 48% | 949 hPa | - | - | - | - |
| 1777542820 | 17.78° C | 47% | 949.2 hPa | - | - | - | - |
| 1777541919 | 17.78° C | 48% | 949.2 hPa | - | - | - | - |
| 1777541018 | 17.78° C | 48% | 949.1 hPa | - | - | - | - |
| 1777540117 | 17.78° C | 48% | 949.1 hPa | - | - | - | - |
| 1777539216 | 17.78° C | 48% | 948.9 hPa | - | - | - | - |
| 1777538315 | 17.78° C | 49% | 949 hPa | - | - | - | - |
| 1777537414 | 18.33° C | 47% | 948.9 hPa | - | - | - | - |
| 1777536513 | 18.33° C | 47% | 949 hPa | - | - | - | - |
| 1777535612 | 18.33° C | 48% | 949 hPa | - | - | - | - |
| 1777534711 | 18.33° C | 47% | 949.2 hPa | - | - | - | - |
| 1777533810 | 18.33° C | 47% | 949.3 hPa | - | - | - | - |
| 1777532909 | 18.33° C | 48% | 949.4 hPa | - | - | - | - |
| 1777532008 | 17.78° C | 51% | 949.4 hPa | - | - | - | - |
* Rain since midnight (hover to see other rain measurements)
** Current wind speed in m/s (hover to see current wind gust speed)